Simultaneous Nadir Overpasses (SNOs) Predictions

Prediction of SNOs between GOES-16 and TERRA Satellite Orbit:

Table of predicted SNOs for the next 14.0 days since TLE Epoch: 1/7/2023
Index Date Time (GOES-16) GOES-16 Lat,Lon TERRA Lat,Lon Distance(km) Time Diff (sec)
1 01/08/2023 03:03:36 0.02, -75.18 0.42, -73.37 206.86 80
2 01/08/2023 15:26:36 -0.01, -75.21 0.64, -78.30 352.30 80
3 01/10/2023 15:08:09 -0.01, -75.22 -0.15, -74.49 82.89 80
4 01/11/2023 03:31:17 -0.00, -75.21 -0.92, -79.46 483.60 80
5 01/13/2023 03:15:30 -0.00, -75.23 -0.11, -75.64 47.56 80
6 01/15/2023 02:57:03 0.00, -75.25 0.72, -71.83 389.02 80
7 01/15/2023 15:20:03 0.00, -75.28 0.31, -76.77 169.66 80
8 01/17/2023 15:01:35 -0.01, -75.31 -0.48, -72.95 267.11 80
9 01/18/2023 03:24:44 0.01, -75.30 -0.53, -77.93 299.11 80
10 01/20/2023 03:06:16 0.02, -75.32 0.28, -74.11 137.59 80
11 01/20/2023 15:26:36 -0.02, -75.35 0.74, -79.06 421.27 80
